Tracking 32954 objects as of 20-Jan-2026
HD Live streaming from Space Station
objects crossing your sky now

COSMOS 1884 (GLONASS)

Track COSMOS 1884 (GLONASS) now!
COSMOS 1884 (GLONASS) is classified as:


NORAD ID: 18356
Int'l Code: 1987-079B
Perigee: 19,085.7 km
Apogee: 19,188.2 km
Inclination: 65.7 °
Period: 675.7 minutes
Semi major axis: 25507 km
RCS: 0.8552 m2 (medium)
Launch date: September 16, 1987
Source: Commonwealth of Independent States (former USSR) (CIS)
Launch site: TYURATAM MISSILE AND SPACE COMPLEX (TTMTR)
Your satellite tracking list
Your tracking list is empty




NASA's NSSDC Master Catalog

Two Line Element Set (TLE):
1 18356U 87079B   26011.26002173 -.00000080  00000-0  00000-0 0  9994
2 18356  65.7068 324.3610 0020110 209.2622 269.4369  2.13102999298322
Source of the keplerian elements: AFSPC